Location: Dos Palmas
(32.4468°N, 116.8732°W)
Time: 01:49:07
(UTC+00:00)

SL-16 R/B - Pass Details

Date: 20 June 2021
Orbit: 842 x 847 km, 71.0° (Epoch: 27 July)

Event Time Altitude Azimuth Distance (km) Brightness Sun altitude
Exits shadow 08:49:04 13° 296° (WNW) 2,274 4.5 -32.3°
Maximum altitude 08:49:50 13° 304° (NW) 2,254 4.6 -32.3°
Drops below altitude 10° 08:52:23 10° 331° (NNW) 2,467 5.1 -32.1°
Sets 08:56:22 0° 359° (N) 3,405 6.3 -31.9°
